Temperature
12 12 12 12 12 12 12 12 12 11 11 11 11 11 11 11 11 11 11 11 11 11 11 10 10 10 10 10 9 10 9 9 10 9 9 9 9 9 9 9 9 10 10
12 12 12 12 11 11 11 11 11 11 11 11 11 11 11 11 10 10 10 11 11 11 10 10 10 10 10 10 9 9 9 9 9 9 9 9 9 9 9 9 9 9 9
12 12 11 11 11 11 11 11 11 11 11 11 11 11 11 10 10 10 10 10 10 10 10 10 10 10 10 9 9 9 9 9 9 9 9 9 9 9 9 9 9 9 9
11 11 11 11 11 11 11 10 10 10 10 10 10 10 10 10 10 10 10 10 10 10 10 10 10 10 9 9 9 9 9 9 9 9 9 9 9 9 9 9 9 9 9
11 11 11 11 11 10 10 10 10 10 10 10 10 10 10 10 10 10 10 10 9 9 9 9 9 9 9 9 9 9 9 9 9 9 9 9 9 8 8 8 8 8 8
11 11 11 10 10 10 10 10 10 10 10 10 10 10 10 9 9 9 9 9 9 9 9 9 9 9 9 9 9 9 9 8 8 8 8 8 8 8 8 8 8 8 8
10 10 10 10 10 10 10 10 10 9 9 9 9 9 9 9 9 9 9 9 9 9 9 9 9 9 9 9 9 9 9 8 8 8 8 8 8 8 7 7 7 7 7
10 10 10 10 9 9 9 9 9 9 9 9 9 8 8 8 8 8 8 8 8 8 8 8 8 8 8 8 8 8 8 8 8 8 8 8 7 7 7 7 7 7 7
9 9 9 9 9 9 9 9 9 9 9 9 8 8 8 8 8 8 8 8 8 8 8 8 8 8 8 8 8 8 8 8 8 7 7 7 7 7 7 7 7 7 7
9 9 9 9 9 9 9 9 9 9 8 8 8 8 8 8 7 7 7 7 7 7 7 7 7 7 7 7 7 7 7 7 7 7 7 7 7 6 6 6 6 6 6
8 8 8 8 8 8 8 8 8 8 8 8 8 8 7 7 7 7 6 6 6 6 6 7 7 6 7 7 7 7 7 7 7 6 6 6 6 6 6 6 6 6 6
8 8 8 8 8 8 8 8 8 7 8 8 7 7 7 7 7 7 6 6 6 6 6 6 6 6 6 6 6 6 6 6 6 6 6 6 6 6 6 6 5 5 5
7 7 7 7 7 7 7 7 7 7 7 7 7 7 7 7 7 7 6 6 5 6 5 5 6 6 6 6 6 6 6 6 6 5 5 5 5 5 5 5 5 5 5
7 7 7 7 7 7 7 7 7 7 7 7 7 7 6 6 6 6 6 6 5 5 5 5 5 5 5 5 5 5 5 5 5 5 5 5 5 5 5 5 4 4 4
6 6 6 6 6 6 7 7 7 7 7 6 6 6 6 6 6 6 5 5 5 4 4 4 5 5 5 5 5 5 5 4 4 5 4 4 4 4 4 4 4 4 4
6 6 6 6 6 6 6 6 6 6 6 6 6 6 6 6 5 5 5 5 4 4 4 4 4 4 4 4 4 4 4 4 4 4 4 4 4 4 4 4 3 3 3
5 5 5 5 5 5 5 5 5 5 5 5 5 5 5 5 5 4 4 4 4 4 4 3 4 4 4 4 4 4 4 4 4 4 4 4 3 3 3 3 3 3 3
5 5 5 5 5 5 5 5 5 5 5 5 5 5 5 4 4 4 4 4 4 3 3 3 3 3 4 4 3 3 4 3 3 3 3 3 3 3 3 2 2 2 2
4 4 4 4 4 4 4 4 4 4 4 4 4 4 4 4 4 4 3 3 3 3 3 3 3 3 3 3 3 3 3 3 3 3 3 2 2 2 2 2 2 2 2
4 4 4 4 4 4 4 4 4 4 4 3 3 3 3 3 3 3 3 3 2 3 3 2 2 2 3 3 3 3 3 3 3 3 2 2 2 2 2 2 1 1 1
3 3 3 3 3 3 3 3 3 3 3 3 3 3 3 3 2 2 2 2 2 2 2 2 2 2 2 2 2 2 2 2 2 2 2 2 2 2 1 1 1 1 1
2 3 3 2 2 3 3 3 3 2 2 2 2 2 2 2 2 2 2 2 2 2 2 2 2 1 2 2 2 1 1 1 1 1 1 2 1 1 1 1 1 0 0
2 2 2 2 2 2 2 2 2 2 2 2 2 2 2 1 1 1 1 1 1 1 1 1 1 1 1 1 1 1 1 1 1 1 1 1 1 1 1 0 0 0 -0
1 1 1 1 1 1 1 2 2 2 1 1 1 1 1 1 1 1 1 1 1 1 1 1 1 1 1 1 0 0 0 0 0 0 0 0 1 1 1 0 -0 -0 -0
1 1 1 1 1 1 1 1 1 1 1 1 1 1 1 1 1 0 0 1 1 1 1 0 0 0 0 0 0 0 -0 -0 -0 -0 -1 -1 -0 -0 -0 0 -0 -1 -1
0 0 0 0 0 0 0 0 0 0 0 0 1 1 0 0 0 0 0 0 0 0 0 0 0 0 0 -0 -0 -0 -0 -1 -1 -1 -1 -1 -1 -2 -1 -1 -1 -1 -1
Wind_Speed
4 4 3 3 4 4 4 3 2 3 3 3 2 2 2 3 4 5 5 5 5 4 3 2 2 3 2 3 3 4 4 4 4 4 5 5 5 6 6 6 6 6 6
4 4 3 3 3 4 4 3 2 3 3 3 3 3 3 3 3 5 5 5 4 3 3 2 2 2 2 2 2 2 3 4 4 4 5 5 5 5 6 6 6 6 6
5 4 3 3 3 4 4 3 3 3 2 2 2 2 3 3 4 4 4 4 4 3 3 2 2 1 1 1 1 2 3 3 3 4 4 4 4 5 6 6 6 6 6
5 4 4 3 3 3 3 3 2 2 2 2 1 1 2 2 3 3 3 3 3 3 3 2 1 1 1 1 1 2 2 3 3 3 4 4 4 4 5 6 6 6 7
5 4 4 4 5 3 3 3 2 2 2 1 1 1 1 1 1 2 2 3 3 2 2 2 1 1 1 1 1 2 2 2 3 4 4 4 5 5 6 6 6 7 7
4 4 3 4 4 4 3 2 3 2 2 2 1 1 0 1 1 1 1 2 2 2 1 1 1 1 1 2 3 3 3 2 3 4 4 4 5 6 6 7 7 7 7
3 3 3 4 4 4 4 4 3 3 2 2 1 0 0 1 1 1 1 1 2 2 1 1 2 2 1 1 3 4 3 3 3 4 4 5 5 6 7 8 8 8 8
3 3 4 3 3 4 4 4 4 2 1 2 2 1 0 1 1 1 1 1 1 1 1 1 1 1 1 1 2 3 3 3 4 5 5 6 6 6 7 8 8 8 8
3 3 4 4 3 3 4 4 4 4 3 2 1 2 2 2 1 1 1 1 1 1 0 1 1 1 1 1 1 2 3 4 5 6 6 7 7 7 8 8 8 8 8
3 2 3 4 3 3 4 4 3 3 4 3 1 0 1 1 2 1 1 1 1 1 1 0 1 1 1 1 1 2 3 4 5 6 7 7 8 8 9 9 9 9 9
3 3 3 3 3 3 3 3 3 3 3 3 2 1 0 1 0 2 2 2 1 1 1 1 1 0 0 1 1 2 3 4 5 6 7 7 8 9 9 9 9 10 10
2 3 3 3 2 2 3 4 4 4 3 3 2 2 1 1 1 1 2 2 2 2 2 1 1 1 1 1 1 3 3 4 5 6 7 8 8 9 9 10 10 10 10
2 2 2 2 2 2 2 3 3 3 3 3 3 2 1 1 1 1 1 2 2 1 1 1 1 1 1 0 1 3 3 4 5 6 7 7 8 8 8 9 10 11 11
2 3 3 2 3 3 2 2 2 2 3 3 3 3 2 1 1 1 1 1 1 2 1 2 1 1 0 1 2 3 4 5 5 6 7 7 7 8 8 8 9 10 10
2 3 3 2 3 3 2 2 2 2 2 3 3 3 2 1 1 1 0 1 2 2 3 2 1 1 1 2 3 3 4 5 6 6 6 6 7 7 7 8 9 9 10
3 3 3 3 2 2 2 2 2 2 2 1 2 2 2 1 1 1 1 1 1 2 3 2 1 1 1 3 4 4 5 6 6 7 6 6 6 6 7 7 8 9 9
3 3 3 3 2 2 2 2 2 2 2 1 1 2 2 2 1 1 1 1 1 1 2 2 1 1 1 2 3 4 4 4 5 6 7 6 7 7 7 8 8 9 9
3 3 3 3 3 2 2 2 2 2 2 1 1 1 1 1 2 1 1 1 1 1 2 3 2 1 2 2 2 3 3 4 5 6 7 6 7 7 7 8 8 9 9
2 2 3 3 3 2 2 2 2 2 2 2 1 1 1 1 1 1 1 1 2 1 1 2 2 1 1 1 2 3 3 3 4 5 5 5 6 7 7 7 8 8 9
3 2 2 2 2 2 2 2 2 2 2 1 1 2 1 1 2 2 2 2 2 2 1 1 2 1 1 1 1 2 3 3 3 4 5 6 6 6 6 7 7 7 8
2 2 2 2 1 2 2 2 2 2 2 2 1 2 2 2 2 2 2 2 2 2 2 2 2 2 1 1 2 2 3 3 3 2 2 3 4 4 5 6 6 7 8
2 2 2 2 2 2 2 2 2 2 2 2 2 2 2 2 3 3 3 3 3 3 3 3 3 3 3 2 2 2 2 3 3 2 2 4 2 2 4 4 6 7 7
2 2 2 2 2 2 2 2 2 2 2 2 3 2 2 2 2 2 3 4 4 4 4 3 4 4 3 3 3 3 3 3 4 3 2 4 2 3 4 6 7 7 7
2 2 1 2 2 2 2 2 2 1 2 3 3 3 3 3 3 3 3 3 3 4 4 4 4 4 4 4 5 4 4 3 3 2 1 3 2 3 4 5 6 6 7
1 1 1 2 2 2 2 2 2 2 2 2 3 3 3 3 4 4 3 3 3 3 4 5 5 5 5 4 3 1 1 1 3 3 1 1 2 3 3 3 5 6 7
2 2 1 2 2 2 3 2 2 1 2 2 2 3 4 4 4 4 3 3 4 4 3 2 3 4 3 4 4 4 4 2 2 3 2 1 1 1 3 2 2 4 5
Wind_Direction
150 150 149 146 143 141 137 133 124 106 94 90 86 77 61 65 75 93 106 98 98 96 91 91 82 75 83 81 71 64 52 41 32 23 19 18 17 9 6 6 2 356 354
152 152 147 144 142 143 140 135 121 108 98 86 73 64 58 57 63 79 107 108 99 98 100 97 90 80 84 77 68 61 47 34 24 14 7 11 13 5 359 350 347 347 346
146 147 147 142 136 138 135 119 109 104 105 92 84 67 64 52 54 59 78 111 116 112 108 100 89 70 61 46 43 35 30 20 7 356 351 358 5 3 359 347 339 336 334
146 145 148 148 139 135 126 123 129 125 117 117 102 79 75 74 62 68 75 82 103 117 124 107 86 44 18 3 13 10 10 10 3 359 4 4 354 348 346 343 337 335 329
153 149 152 153 147 140 140 148 139 137 136 125 118 103 94 93 81 82 87 94 96 105 123 119 123 69 18 349 347 330 326 332 344 349 359 4 358 342 333 332 328 330 330
151 144 146 150 147 144 148 144 142 136 140 145 123 92 150 157 122 97 105 113 108 108 109 111 109 98 355 347 351 329 309 310 334 340 344 348 349 345 341 336 329 323 327
151 149 149 151 151 155 161 151 145 142 149 145 110 70 311 186 158 171 138 112 114 119 110 104 99 100 71 9 333 326 318 317 320 324 328 329 331 330 331 331 333 333 335
157 159 155 161 160 159 157 156 153 154 176 168 142 135 99 319 299 234 178 159 158 128 125 142 107 90 89 66 7 345 323 325 335 325 320 321 320 321 325 326 330 331 332
136 160 164 159 168 163 167 168 169 165 176 202 161 152 161 208 260 263 225 217 226 216 164 134 135 133 115 76 34 346 343 339 332 327 330 331 326 321 322 325 329 329 328
138 136 143 156 166 161 168 178 176 170 161 183 216 217 178 160 160 250 269 228 227 229 225 219 143 132 107 57 19 335 335 338 330 328 327 324 324 326 323 320 322 325 325
145 142 135 130 162 167 173 179 174 171 171 177 186 194 249 318 188 190 239 242 259 260 241 213 167 177 141 69 40 345 334 328 327 328 325 322 321 322 322 327 326 322 320
152 138 132 136 136 156 178 179 175 175 176 173 178 176 174 179 218 201 234 242 240 249 253 220 182 178 176 104 353 334 323 318 321 323 324 323 322 322 324 327 329 330 326
161 166 147 149 142 138 151 163 174 176 174 173 178 184 190 209 208 199 206 249 263 255 242 246 199 162 156 87 322 312 303 305 313 317 318 320 320 321 322 325 324 324 326
167 157 152 148 139 133 132 146 167 175 171 171 175 176 187 207 207 202 196 200 275 279 243 257 274 175 261 269 298 293 296 297 302 308 314 319 322 323 323 324 324 324 326
150 148 149 140 134 130 130 141 147 163 164 169 177 177 185 205 205 200 182 177 192 250 259 251 255 258 284 284 295 290 294 296 304 305 307 316 322 324 325 325 323 324 325
132 141 135 130 124 127 133 122 130 133 125 158 179 167 181 198 197 205 203 225 214 216 251 252 256 267 299 302 294 292 291 297 304 304 305 310 315 318 321 320 321 323 323
133 139 137 137 138 135 130 130 142 137 151 157 147 181 196 196 200 212 205 224 245 211 249 285 302 289 237 271 297 293 292 288 292 304 305 303 310 313 315 315 317 319 320
135 135 139 144 147 141 142 144 151 146 157 167 171 169 208 187 199 210 197 219 248 241 228 268 292 280 264 254 278 286 294 289 287 294 300 301 309 314 314 314 316 319 320
133 130 134 146 154 156 157 156 152 159 164 175 188 189 212 180 212 211 198 218 241 265 246 246 271 274 278 284 296 298 295 292 296 294 291 303 314 322 322 324 323 324 324
145 140 145 153 168 161 152 154 158 166 171 177 189 193 194 198 219 221 219 226 228 230 236 245 261 265 282 289 275 289 303 305 301 301 298 300 304 314 317 323 330 332 334
147 143 141 145 167 164 165 151 164 170 178 191 200 196 200 201 216 223 229 220 213 214 219 237 261 277 291 293 275 276 294 308 298 295 298 293 293 294 301 306 313 321 329
146 140 148 164 184 186 169 161 163 180 189 204 219 235 227 215 224 231 240 231 216 211 217 227 245 250 258 258 267 289 301 310 293 288 305 296 281 287 281 285 300 312 322
150 150 167 176 187 187 183 185 187 186 196 213 217 224 242 236 228 233 247 246 241 242 231 221 233 239 238 238 234 249 260 267 274 275 292 282 278 281 284 289 294 304 317
163 171 183 192 203 205 197 206 208 197 201 219 219 216 218 226 231 229 233 236 240 244 244 232 231 238 235 225 219 232 248 271 296 278 265 267 283 290 297 287 285 296 309
184 192 184 198 210 224 214 219 206 197 210 228 230 222 221 226 240 235 229 238 250 261 271 259 257 259 267 264 250 216 256 289 295 283 243 250 287 310 294 274 287 303 308
205 194 214 220 216 230 231 228 204 197 221 243 245 235 235 243 245 236 225 228 241 254 264 286 274 267 259 251 245 215 209 239 283 274 239 237 266 327 300 279 276 291 301
Height
1519 1521 1523 1524 1525 1527 1528 1529 1530 1531 1532 1533 1534 1535 1536 1537 1537 1537 1537 1538 1538 1538 1538 1538 1538 1538 1538 1538 1538 1538 1537 1537 1536 1536 1535 1534 1533 1533 1532 1531 1531 1530 1529
1517 1519 1520 1522 1524 1525 1527 1528 1529 1530 1531 1532 1533 1534 1535 1535 1536 1536 1536 1536 1536 1536 1537 1537 1537 1537 1537 1537 1537 1536 1536 1535 1535 1534 1533 1532 1532 1531 1530 1530 1529 1528 1527
1515 1517 1518 1520 1522 1523 1525 1526 1527 1529 1530 1531 1532 1532 1533 1534 1534 1534 1535 1535 1535 1535 1535 1535 1535 1535 1535 1535 1535 1535 1534 1533 1533 1532 1531 1531 1530 1529 1529 1528 1527 1526 1525
1512 1514 1516 1518 1520 1521 1522 1524 1525 1526 1528 1529 1530 1531 1531 1532 1532 1533 1533 1533 1533 1533 1533 1533 1533 1533 1533 1533 1533 1533 1532 1532 1531 1530 1530 1529 1528 1528 1527 1525 1524 1524 1523
1510 1512 1513 1515 1517 1519 1520 1521 1523 1524 1525 1526 1527 1528 1529 1530 1530 1531 1531 1531 1531 1531 1531 1531 1531 1531 1531 1531 1531 1531 1530 1530 1529 1528 1527 1527 1526 1525 1525 1523 1522 1521 1520
1507 1509 1511 1513 1514 1516 1517 1519 1520 1522 1523 1524 1525 1526 1527 1528 1528 1529 1529 1529 1529 1529 1529 1529 1529 1529 1529 1529 1529 1528 1528 1527 1527 1526 1525 1524 1523 1523 1522 1521 1519 1518 1517
1504 1506 1508 1510 1511 1513 1514 1516 1518 1519 1521 1522 1523 1524 1525 1525 1526 1526 1527 1527 1527 1527 1527 1527 1527 1527 1527 1527 1526 1525 1525 1525 1524 1524 1523 1522 1521 1521 1520 1519 1517 1515 1514
1501 1503 1505 1507 1508 1510 1511 1513 1515 1516 1518 1520 1520 1521 1522 1523 1523 1524 1524 1525 1525 1525 1525 1525 1525 1525 1524 1524 1524 1523 1523 1522 1521 1521 1521 1519 1519 1518 1517 1516 1514 1513 1512
1498 1500 1502 1504 1505 1507 1508 1510 1511 1513 1514 1517 1518 1520 1519 1519 1520 1521 1521 1522 1522 1522 1522 1522 1522 1522 1522 1522 1521 1520 1520 1519 1518 1518 1518 1517 1516 1515 1514 1513 1512 1510 1509
1495 1497 1499 1501 1502 1504 1505 1507 1509 1510 1512 1513 1515 1516 1518 1517 1518 1517 1518 1519 1519 1519 1519 1519 1519 1519 1519 1519 1518 1518 1517 1516 1516 1515 1514 1514 1513 1512 1511 1510 1509 1508 1506
1492 1494 1496 1498 1499 1501 1503 1504 1505 1507 1508 1510 1511 1512 1514 1515 1515 1515 1515 1515 1516 1516 1516 1517 1516 1516 1516 1516 1515 1515 1514 1513 1513 1512 1511 1511 1510 1509 1508 1507 1505 1504 1503
1489 1491 1493 1494 1496 1498 1499 1501 1502 1504 1505 1507 1508 1509 1510 1511 1512 1512 1512 1512 1512 1513 1513 1514 1513 1513 1513 1513 1512 1512 1511 1511 1510 1509 1508 1507 1507 1506 1504 1503 1502 1501 1499
1485 1488 1490 1491 1493 1494 1496 1498 1499 1500 1502 1503 1504 1505 1507 1508 1509 1509 1510 1509 1509 1509 1510 1511 1511 1511 1511 1510 1509 1509 1508 1507 1507 1506 1505 1504 1503 1502 1501 1500 1499 1497 1496
1483 1485 1487 1488 1489 1491 1492 1494 1495 1497 1498 1500 1501 1502 1503 1504 1505 1506 1506 1506 1506 1506 1507 1507 1507 1508 1507 1507 1506 1506 1505 1504 1503 1503 1501 1501 1500 1498 1497 1496 1495 1494 1492
1481 1482 1484 1485 1486 1488 1489 1491 1492 1494 1495 1496 1497 1498 1499 1500 1501 1502 1503 1504 1504 1503 1503 1503 1504 1504 1504 1504 1503 1502 1502 1501 1500 1499 1498 1497 1496 1495 1494 1493 1492 1490 1489
1478 1479 1480 1482 1483 1485 1486 1487 1488 1490 1491 1492 1493 1494 1495 1496 1497 1498 1499 1500 1501 1501 1500 1500 1500 1501 1501 1500 1500 1499 1499 1498 1497 1496 1495 1494 1493 1492 1490 1490 1488 1487 1486
1475 1476 1478 1479 1481 1482 1483 1484 1486 1486 1488 1489 1489 1490 1491 1492 1493 1494 1495 1496 1497 1497 1497 1497 1497 1497 1497 1497 1496 1496 1495 1495 1494 1492 1491 1490 1489 1488 1487 1486 1485 1484 1482
1472 1474 1475 1476 1477 1479 1480 1481 1482 1483 1484 1485 1485 1486 1487 1488 1489 1490 1491 1492 1492 1493 1494 1493 1493 1493 1493 1493 1493 1493 1492 1491 1490 1489 1488 1487 1486 1485 1484 1482 1481 1480 1479
1469 1471 1472 1473 1475 1476 1477 1478 1479 1480 1481 1481 1483 1483 1484 1484 1485 1486 1487 1488 1489 1490 1490 1490 1490 1490 1490 1490 1490 1489 1489 1488 1487 1486 1485 1484 1483 1482 1480 1479 1478 1477 1475
1466 1468 1469 1471 1472 1473 1474 1475 1476 1477 1478 1479 1480 1480 1481 1481 1482 1483 1483 1484 1485 1486 1486 1486 1486 1486 1486 1486 1486 1485 1484 1484 1483 1482 1482 1481 1480 1478 1477 1476 1475 1474 1472
1464 1465 1466 1468 1469 1470 1471 1472 1473 1473 1474 1476 1477 1477 1478 1478 1479 1480 1480 1481 1481 1481 1482 1482 1482 1482 1482 1482 1482 1481 1481 1480 1479 1479 1478 1477 1476 1475 1474 1473 1472 1470 1469
1461 1462 1463 1464 1466 1466 1468 1468 1469 1470 1471 1472 1473 1474 1474 1475 1475 1476 1476 1477 1478 1478 1478 1478 1478 1478 1478 1479 1479 1478 1477 1476 1474 1475 1474 1473 1472 1471 1470 1470 1469 1467 1466
1458 1459 1460 1462 1463 1463 1464 1465 1466 1467 1468 1469 1469 1470 1471 1472 1472 1472 1472 1473 1473 1474 1475 1475 1474 1474 1475 1475 1475 1474 1473 1472 1471 1471 1470 1468 1468 1467 1467 1466 1465 1464 1462
1455 1456 1457 1459 1460 1460 1461 1462 1463 1463 1464 1465 1466 1466 1467 1468 1468 1468 1468 1469 1469 1469 1470 1470 1471 1471 1471 1472 1471 1471 1470 1469 1468 1468 1467 1465 1464 1464 1463 1462 1461 1460 1459
1452 1453 1454 1456 1456 1457 1458 1459 1460 1460 1460 1461 1462 1463 1463 1464 1464 1465 1465 1465 1465 1465 1466 1466 1467 1467 1467 1467 1467 1467 1466 1465 1463 1463 1464 1462 1461 1460 1459 1458 1458 1457 1455
1449 1451 1452 1453 1453 1454 1455 1456 1456 1457 1457 1457 1458 1458 1459 1460 1460 1461 1461 1461 1460 1461 1462 1462 1462 1462 1463 1463 1463 1462 1462 1462 1460 1459 1459 1459 1458 1457 1455 1454 1454 1453 1452